Location: *
(2.5500°S, 65.9667°W)
Time: 00:55:54
(UTC+00:00)

Cosmos 2084 - Visible Passes

Search period start: 22 May 2022 00:00
Search period end: 01 June 2022 00:00
Orbit: 509 x 669 km, 62.8° (Epoch: 21 May)

Date Brightness Start Highest point End Pass type
(mag) Time Alt. Az. Time Alt. Az. Time Alt. Az.
22 May 3.9 22:50:09 10° NNW 22:54:42 72° WSW 22:59:25 10° SSE visible
23 May 5.3 22:58:08 10° NW 23:02:17 34° WSW 23:06:34 10° S visible
24 May 5.7 09:23:02 10° SSE 09:26:06 20° ESE 09:29:04 10° ENE visible
24 May 6.3 23:06:54 10° WNW 23:09:55 17° WSW 23:13:00 10° SSW visible
25 May 4.4 09:29:45 10° S 09:33:42 44° ESE 09:37:28 10° NE visible
26 May 3.2 09:37:08 10° SSW 09:41:15 77° WNW 09:45:10 10° NNE visible
27 May 4.1 09:45:12 11° SW 09:48:45 32° WNW 09:52:17 10° N visible
28 May 5.6 08:17:02 20° ESE 08:17:05 20° ESE 08:20:02 10° ENE visible
28 May 5.1 09:53:57 10° WSW 09:56:15 15° WNW 09:58:29 10° NNW visible
29 May 4.6 08:25:22 39° E 08:25:22 39° E 08:28:26 10° NE visible
30 May 4.3 08:33:36 39° NNE 08:33:36 39° NNE 08:36:07 10° NNE visible
31 May 5.2 08:41:45 20° NNW 08:41:45 20° NNW 08:43:14 10° N visible
